Tracking 28790 objects as of 19-Apr-2024
HD Live streaming from Space Station
objects crossing your sky now

COSMOS 2251 DEB

Track COSMOS 2251 DEB now!
10-day predictions


NORAD ID: 40796
Int'l Code: 1993-036BVZ
Perigee: 622.3 km
Apogee: 719.0 km
Inclination: 74.0 °
Period: 98.0 minutes
Semi major axis: 7041 km
RCS: Unknown
Launch date: June 16, 1993
Source: Commonwealth of Independent States (former USSR) (CIS)
Launch site: PLESETSK MISSILE AND SPACE COMPLEX (PKMTR)

Note: This is SATELLITE DEBRIS
Your satellite tracking list
Your tracking list is empty




NASA's NSSDC Master Catalog

Two Line Element Set (TLE):
1 40796U 93036BVZ 24108.70882150  .00016713  00000-0  27339-2 0  9997
2 40796  74.0188 245.8792 0068623 174.3002 247.8388 14.69232967672469
Source of the keplerian elements: AFSPC